Regional Weather Roundup
Issued by NWS

Home | Current Version | Previous Version | Graphics & Text | Print | Product List | Glossary On
Versions: 1 2 3 4 5 6 7 8 9 10 11 12 13 14 15 16 17 18 19 20 21 22 23 24 25 26 27 28 29 30 31 32 33 34 35 36 37 38 39 40 41 42 43 44 45 46 47 48 49 50
000
ASUS45 KBOU 281707
RWRCO

WEATHER ROUNDUP FOR COLORADO
NATIONAL WEATHER SERVICE DENVER/BOULDER CO
1100 AM MDT MON JUL 28 2014

NOTE: "FAIR" INDICATES FEW OR NO CLOUDS BELOW 12000 FEET WITH NO
SIGNIFICANT WEATHER AND/OR OBSTRUCTIONS TO VISIBILITY.

COZ001>005-013-030-031-281800-
...NORTHWEST COLORADO...

CITY           SKY/WX    TMP DP  RH WIND       PRES   REMARKS
CRAIG          SUNNY     73  50  44 N8        30.39F
HAYDEN         SUNNY     77  45  31 W5        30.41F
MEEKER         MOSUNNY   79  48  33 SW6       30.40F
MOUNT WERNER   NOT AVBL
STEAMBOAT SPGS SUNNY     75  47  37 E5        30.43F
WALDEN         SUNNY     70  45  40 SE6       30.52F
$$

COZ006>008-011-281800-
...WEST CENTRAL VALLEYS...

CITY           SKY/WX    TMP DP  RH WIND       PRES   REMARKS
GRAND JUNCTION PTSUNNY   80  54  40 W6        30.31S
MONTROSE       MOSUNNY   80  51  36 N5        30.39F
EAGLE          MOSUNNY   73  48  40 CALM      30.43F
RIFLE          MOSUNNY   81  48  31 VRB5      30.35F
DELTA          PTSUNNY   80  52  37 CALM      30.34F
NUCLA          PTSUNNY   75  50  41 W3        30.45S
$$

COZ017>023-064>068-281800-
...SOUTHWEST COLORADO...

CITY           SKY/WX    TMP DP  RH WIND       PRES   REMARKS
DURANGO        PTSUNNY   71  52  50 SE7       30.48R
CORTEZ         CLOUDY    71  56  58 CALM      30.42S
PAGOSA SPRINGS PTSUNNY   70  48  45 SW6       30.55S
TELLURIDE      NOT AVBL
WOLF CREEK PAS NOT AVBL
$$

COZ009-010-012-014-032>034-037-058>063-281800-
...CENTRAL COLORADO...

CITY           SKY/WX    TMP DP  RH WIND       PRES   REMARKS
ASPEN          PTSUNNY   72  46  39 NE5       30.50F
BUENA VISTA    MOSUNNY   71  49  46 S3        30.51F
COPPER MTN     MOSUNNY   59  41  51 W8G16     30.82S
BERTHOUD PASS  FAIR      52  37  58 NE3       30.87S
COTTONWOOD PAS PTSUNNY   68  50  52 SE8       30.66S
GUNNISON       CLOUDY    66  48  52 CALM      30.55S
KREMMLING      SUNNY     73  45  35 CALM      30.49F
LEADVILLE      MOSUNNY   66  41  40 VRB3      30.63F
MONARCH PASS   CLOUDY    52  45  76 SW13      30.92S
SALIDA         NOT AVBL
SUNLIGHT       CLOUDY    59  50  72 CALM      30.75S
WILKERSON PASS NOT AVBL
$$

COZ069>075-281800-
...SAN LUIS VALLEY/SANGRE DE CRISTO MOUNTAINS...

CITY           SKY/WX    TMP DP  RH WIND       PRES   REMARKS
ALAMOSA        CLOUDY    64  54  69 NE5       30.53F
LA VETA PASS   CLOUDY    54  50  87 SW8       30.69S
SAGUACHE       CLOUDY    63  54  72 CALM      30.56S
$$

COZ035-036-038>040-281800-
...NORTHERN COLORADO FRONT RANGE...

CITY           SKY/WX    TMP DP  RH WIND       PRES   REMARKS
DENVER INTL AP PTSUNNY   76  57  51 W5        30.35F
DMNS CITY PARK   N/A     77  58  52 NW3       30.35S
AURORA         NOT AVBL
FRONT RANGE AP MOSUNNY   77  59  53 CALM      30.38
ERIE MUNI ARPT SUNNY     76  60  57 NE5       30.34F
BOULDER MUN AP SUNNY     75  55  50 N5        30.35F
CENTENNIAL     PTSUNNY   74  56  53 VRB6      30.38F
BROOMFIELD     MOSUNNY   75  59  57 NW8       30.38F
FORT COLLINS   SUNNY     77  57  50 NE8       30.35F
LONGMONT       SUNNY     80  60  50 N6        30.36S
$$

COZ041-046-047-076>085-087-088-281800-
...PIKES PEAK/PALMER DIVIDE AND SOUTHERN FOOTHILLS...

CITY           SKY/WX    TMP DP  RH WIND       PRES   REMARKS
COLO. SPRINGS  PTSUNNY   67  59  75 S8        30.45R
A. F. ACADEMY  MOSUNNY   69  59  70 S10       30.44S
ELLICOTT       PTSUNNY   68  60  75 S14       30.43S
FALCON         CLOUDY    67  59  73 S10       30.49R
FORT CARSON    CLOUDY    66  60  81 SE5       30.42S
LIMON          PTSUNNY   76  60  57 S17G25    30.39S
MONUMENT HILL  MOSUNNY   70  55  60 E5        30.46S
TRINIDAD       CLOUDY    69  58  67 SE6       30.42R
$$

COZ042>045-048>051-090-091-281800-
...NORTHEAST COLORADO...

CITY           SKY/WX    TMP DP  RH WIND       PRES   REMARKS
GREELEY ARPT   SUNNY     75  57  53 NE5       30.33F
AKRON          SUNNY     82  57  42 SE14G22   30.34F
BURLINGTON     PTSUNNY   75  58  55 SE17G26   30.35F
WRAY             N/A     84  58  41 SE8       30.31F
STERLING       SUNNY     86  61  42 SE6       30.30S
HOLYOKE        SUNNY     79  55  44 SE12      30.33F
FORT MORGAN    SUNNY     82  56  40 S5        30.33F
$$

COZ086-089-092>099-281800-
...SOUTHEAST COLORADO...

CITY           SKY/WX    TMP DP  RH WIND       PRES   REMARKS
PUEBLO         CLOUDY    71  64  78 E10       30.35S
LA JUNTA       PTSUNNY   76  61  59 SE16      30.34F
LAMAR          CLOUDY    74  62  66 S15       30.34R
SPRINGFIELD      N/A     67  61  81 S15       30.40R
$$


USA.gov is the U.S. government's official web portal to all federal, state and local government web resources and services.